Flag for Belgium Weather past 2 weeks in Kortrijk, Belgium

Now
39 °F

Clear.


Feels Like: 35 °F
Forecast: 35 / 54 °F
Wind: 6 mph from Northwest

Location: Lille Airport

Current Time: Apr 28, 2015 at 12:42:56 AM

Latest Report: Apr 28, 2015 at 12:00 AM


Visibility: 10 mi

Pressure: 29.92 "Hg

Humidity: 75%

Dew point: 32 °F

Location of KortrijkLocation

Historic Weather in Kortrijk — Graph

°F

Kortrijk temperature yesterday

Maximum temperature yesterday: 55 °F (at 2:00 PM)
Minimum temperature yesterday: 41 °F (at 11:30 PM)
Average temperature yesterday: 49 °F

Past Weeks' High & Low Weather Summary

 TemperatureHumidityPressure
High79 °F (Apr 15, 4:30 PM)100% (Apr 24, 6:00 AM)30.51 "Hg (Apr 24, 6:00 AM)
Low41 °F (Apr 18, 5:00 AM)23% (Apr 15, 5:30 PM)29.68 "Hg (Apr 26, 4:30 PM)
Average54 °F67%30.11 "Hg
* Reported Apr 12 11:00 PM — Apr 27 11:30 PM, Kortrijk, Weather by CustomWeather, © 2015

Note: Actual official high and low records may vary slightly from our data, if they occured in-between our weather recording intervals... More about our weather records

Advertising

Kortrijk weather history for previous 24 hours

 ConditionsComfort  
Time TempWeatherWind HumidityBarometerVisibility
11:30 PM
Mon, Apr 27
41 °FClear.5 mph70%29.92 "Hg10 mi
11:00 PM43 °FClear.7 mph66%29.89 "Hg10 mi
10:30 PM43 °FClear.6 mph66%29.89 "Hg10 mi
10:00 PM45 °FPassing clouds.7 mph57%29.89 "HgN/A
9:30 PM45 °FPassing clouds.9 mph61%29.89 "HgN/A
9:00 PM46 °FPassing clouds.12 mph53%29.86 "HgN/A
8:30 PM48 °FPassing clouds.13 mph50%29.86 "HgN/A
8:00 PM50 °FPassing clouds.14 mph47%29.86 "HgN/A
7:30 PM52 °FPassing clouds.13 mph44%29.83 "HgN/A
7:00 PM52 °FPassing clouds.14 mph44%29.83 "HgN/A
6:30 PM54 °FPassing clouds.14 mph47%29.83 "HgN/A
6:15 PM54 °FPassing clouds.15 mph47%29.83 "HgN/A
5:30 PM54 °FPassing clouds.10 mph41%29.83 "HgN/A
5:00 PM54 °FSunny.14 mph44%29.80 "Hg10 mi
4:30 PM54 °FPassing clouds.13 mph44%29.80 "HgN/A
4:00 PM55 °FPassing clouds.12 mph51%29.80 "HgN/A
3:30 PM55 °FSunny.14 mph41%29.80 "Hg10 mi
3:00 PM54 °FSunny.14 mph44%29.80 "Hg10 mi
2:30 PM55 °FScattered clouds.14 mph41%29.80 "HgN/A
2:00 PM55 °FScattered clouds.15 mph44%29.80 "HgN/A
1:30 PM54 °FBroken clouds.14 mph41%29.80 "HgN/A
1:00 PM54 °FBroken clouds.14 mph51%29.80 "HgN/A
12:30 PM54 °FPartly sunny.16 mph51%29.80 "HgN/A
12:00 PM52 °FPartly sunny.16 mph50%29.80 "HgN/A
11:30 AM50 °FPartly sunny.17 mph54%29.80 "HgN/A
11:00 AM50 °FPartly sunny.17 mph58%29.80 "HgN/A
10:30 AM48 °FPartly sunny.17 mph58%29.80 "HgN/A
10:00 AM48 °FPartly sunny.16 mph62%29.77 "HgN/A
9:30 AM48 °FScattered clouds.15 mph71%29.77 "HgN/A
9:00 AM46 °FScattered clouds.15 mph76%29.77 "HgN/A
8:30 AM45 °FPartly sunny.13 mph81%29.77 "HgN/A
8:00 AM43 °FPartly sunny.12 mph87%29.74 "HgN/A
7:30 AM43 °FSunny.10 mph87%29.74 "Hg10 mi
7:00 AM43 °FClear.10 mph87%29.74 "Hg10 mi
6:30 AM43 °FPassing clouds.9 mph93%29.71 "HgN/A
6:00 AM45 °FPassing clouds.9 mph87%29.74 "HgN/A
5:30 AM45 °FClear.9 mph87%29.71 "Hg10 mi
5:00 AM46 °FPassing clouds.12 mph82%29.71 "HgN/A
4:30 AM46 °FMostly cloudy.13 mph87%29.71 "HgN/A
4:00 AM46 °FOvercast.12 mph93%29.71 "HgN/A
3:30 AM48 °FLow clouds.10 mph87%29.71 "Hg6 mi
3:00 AM48 °FLow clouds.9 mph87%29.71 "Hg5 mi
2:30 AM48 °FLow clouds.9 mph87%29.71 "Hg6 mi
2:00 AM48 °FLow clouds.9 mph87%29.71 "Hg4 mi
1:30 AM48 °FLow clouds.10 mph94%29.71 "Hg4 mi
1:00 AM48 °FLow clouds.10 mph94%29.71 "Hg4 mi
12:30 AM48 °FLight rain. Low clouds.10 mph94%29.71 "Hg4 mi
12:00 AM48 °FLight rain. Low clouds.12 mph94%29.68 "Hg5 mi
Weather by CustomWeather, © 2015

See weather overviewHow to use our weather pages